Location: Unspecified
(0.0000°N, 0.0000°E)
Time: 23:57:28
(UTC+00:00)

Tiros 1 despin weight - Visible Passes

Search period start: 24 February 2017 00:00
Search period end: 06 March 2017 00:00
Orbit: 595 x 644 km, 48.2° (Epoch: 24 February)

Date Brightness Start Highest point End Pass type
(mag) Time Alt. Az. Time Alt. Az. Time Alt. Az.
03 Mar ? 20:27:45 10° NW 20:27:56 11° NW 20:27:56 11° NW visible
04 Mar ? 19:04:39 10° N 19:08:01 19° NE 19:08:29 19° ENE visible
04 Mar ? 20:45:15 10° WNW 20:45:40 12° WNW 20:45:40 12° WNW visible
05 Mar ? 19:20:30 10° NNW 19:25:03 51° NE 19:26:24 38° E visible
